Weather History for Opa Locka, FL

Change the Weather History Date:

Sunday, January 6, 2013

  Actual Average Record
Temperature  
Mean Temperature 76 °F -  
Max Temperature 82 °F 75 °F 86 °F (1990)
Min Temperature 69 °F 60 °F 42 °F (1999)
Cooling Degree Days 10    
Growing Degree Days 26 (Base 50)    
Moisture  
Dew Point 69 °F    
Average Humidity 74    
Maximum Humidity 100    
Minimum Humidity 65    
Precipitation  
Precipitation 0.02 in - - ()
Sea Level Pressure  
Sea Level Pressure 30.12 in    
Wind  
Wind Speed 7 mph (SE)    
Max Wind Speed 18 mph    
Max Gust Speed 23 mph    
Visibility 10 miles    
Events      
Averages and records for this station are not official NWS values.
T = Trace of Precipitation, MM = Missing Value Source: NWS Daily Summary

Daily Weather History Graph

Daily Weather History Graph

Search for Another Location

Airport:

Trip Planner

Search our weather history database for the weather conditions in past years. The results will help you decide how hot, cold, wet, or windy it might be!

Date:

Astronomy

Jan. 06, 2013 Rise Set
Actual Time 7:09 AM EST 5:45 PM EST
Civil Twilight 6:44 AM EST 6:10 PM EST
Nautical Twilight 6:15 AM EST 6:38 PM EST
Astronomical Twilight 5:47 AM EST 7:06 PM EST
Moon 1:34 AM EST (1/6) 1:00 PM EST (1/6)
Length of Visible Light 11h 25m
Length of Day
10h 35m
Waning Crescent, 33% of the Moon is Illuminated
Jan 6
Waning Crescent
Jan 11
New
Jan 18
First Quarter
Jan 26
Full
Feb 3
Last Quarter

Hourly Weather History & Observations

Time (EST) Temp. Heat Index Dew Point Humidity Pressure Visibility Wind Dir Wind Speed Gust Speed Precip Events Conditions
12:53 AM - - - N/A% 30.19 in 10.0 mi NNE 3.5 mph - N/A   Partly Cloudy
1:53 AM - - - N/A% 30.17 in 10.0 mi East 3.5 mph - N/A   Partly Cloudy
2:53 AM - - - N/A% 30.16 in 10.0 mi Calm Calm - 0.01 in   Overcast
3:53 AM - - - N/A% 30.14 in 10.0 mi East 4.6 mph - 0.01 in   Mostly Cloudy
4:53 AM - - - N/A% 30.12 in 10.0 mi ENE 5.8 mph - N/A   Overcast
5:53 AM - - - N/A% 30.13 in 10.0 mi ESE 4.6 mph - 0.00 in   Overcast
6:53 AM - - - N/A% 30.15 in 10.0 mi East 3.5 mph - N/A   Overcast
7:53 AM 69.1 °F - 69.1 °F 100% 30.16 in 10.0 mi SE 5.8 mph - N/A   Scattered Clouds
8:53 AM 73.0 °F - 71.1 °F 93% 30.17 in 10.0 mi SE 8.1 mph - N/A   Partly Cloudy
9:53 AM 79.0 °F - 69.1 °F 72% 30.18 in 10.0 mi SE 15.0 mph - N/A   Partly Cloudy
10:53 AM 81.0 °F 84.1 °F 69.1 °F 67% 30.16 in 10.0 mi SE 13.8 mph - N/A   Mostly Cloudy
11:23 AM 80.6 °F 83.9 °F 69.8 °F 70% 30.14 in 10.0 mi SSE 18.4 mph 23.0 mph N/A   Scattered Clouds
11:53 AM 81.0 °F 83.8 °F 68.0 °F 65% 30.14 in 10.0 mi SE 16.1 mph - N/A   Scattered Clouds
12:53 PM 81.0 °F 83.8 °F 68.0 °F 65% 30.11 in 10.0 mi SE 12.7 mph - N/A   Scattered Clouds
1:53 PM 80.1 °F 82.9 °F 69.1 °F 69% 30.09 in 10.0 mi SE 10.4 mph - N/A   Mostly Cloudy
2:16 PM 80.6 °F 83.2 °F 68.0 °F 65% 30.08 in 10.0 mi SSE 16.1 mph - N/A   Overcast
2:53 PM 81.0 °F 83.8 °F 68.0 °F 65% 30.08 in 10.0 mi South 12.7 mph - N/A   Mostly Cloudy
3:28 PM 82.4 °F 86.3 °F 69.8 °F 66% 30.07 in 10.0 mi SE 11.5 mph - N/A   Mostly Cloudy
3:35 PM 82.4 °F 86.3 °F 69.8 °F 66% 30.07 in 10.0 mi ESE 12.7 mph - N/A   Overcast
3:50 PM 80.6 °F 83.9 °F 69.8 °F 70% 30.08 in 10.0 mi ESE 13.8 mph - N/A   Overcast
3:53 PM 80.1 °F 82.9 °F 69.1 °F 69% 30.08 in 10.0 mi SE 13.8 mph - N/A   Overcast
4:53 PM 79.0 °F - 66.9 °F 66% 30.08 in 10.0 mi South 10.4 mph - N/A   Scattered Clouds
5:00 PM 78.8 °F - 68.0 °F 69% 30.08 in 10.0 mi South 9.2 mph - N/A   Mostly Cloudy
5:31 PM 77.0 °F - 68.0 °F 74% 30.08 in 10.0 mi SSE 11.5 mph - N/A   Scattered Clouds
5:53 PM 75.9 °F - 66.9 °F 74% 30.09 in 10.0 mi SSE 9.2 mph - N/A   Clear
6:53 PM 73.9 °F - 68.0 °F 82% 30.10 in 10.0 mi SSE 6.9 mph - N/A   Clear
7:53 PM 73.0 °F - 68.0 °F 84% 30.12 in 10.0 mi SSE 4.6 mph - N/A   Clear
8:53 PM 73.0 °F - 68.0 °F 84% 30.13 in 10.0 mi Calm Calm - N/A   Clear
9:53 PM 69.1 °F - 66.9 °F 93% 30.13 in 10.0 mi Calm Calm - N/A   Clear
10:53 PM - - - N/A% 30.14 in 10.0 mi Calm Calm - N/A   Clear
11:53 PM - - - N/A% 30.14 in 10.0 mi Calm Calm - N/A   Clear